Location: Banios
(43.0451°N, 0.2335°E)
Time: 13:45:18
(UTC+00:00)

A-11 Canister half - Pass Details

Date: 10 May 2021
Orbit: 1513 x 1686 km, 47.2° (Epoch: 14 June)

Event Time Altitude Azimuth Distance (km) Brightness Sun altitude
Rises 16:33:31 0° 251° (WSW) 4,659 12.7 26.9°
Reaches altitude 10° 16:36:33 10° 252° (WSW) 3,672 12.5 26.3°
Maximum altitude 16:45:48 82° 341° (NNW) 1,532 9.5 24.6°
Drops below altitude 10° 16:55:12 10° 70° (ENE) 3,717 10.6 22.9°
Sets 16:58:17 0° 71° (ENE) 4,719 11.0 22.4°
